Location: Newark
(34.9500°N, 139.9667°E)
Time: 05:04:15
(UTC+00:00)

Vanguard 1 Rocket - Pass Details

Date: 13 December 2019
Orbit: 651 x 4226 km, 34.3° (Epoch: 28 January)

Event Time Altitude Azimuth Distance (km) Brightness Sun altitude
Rises 08:17:04 0° 215° (SW) 8,424 13.4 -9.7°
Reaches altitude 10° 08:23:35 10° 209° (SSW) 7,418 12.8 -11.0°
Maximum altitude 08:46:04 42° 148° (SSE) 4,364 10.7 -15.3°
Enters shadow 08:57:57 19° 91° (E) 4,660 10.4 -17.7°
Drops below altitude 10° 09:00:48 10° 84° (E) 5,061 - -18.2°
Sets 09:04:09 0° 77° (ENE) 5,663 - -18.9°
